Bookmark and Share
Track history (hours):
 

Mct Breithorn

Last reported at 2014-Apr-19 04:33 UTC. Time now 2014-Apr-19 05:17 UTC.
Position N 52°26' E 004°42'.

Length 165 m; draft 7.5 m.

Type: Ship (hazmat cat B). MMSI: 269848000.

NotesDate/timePositionNaut miles runAvg speedWind from/ knotsBaromVisibWave heightAir tempDewpointWater temp
2014-Apr-19 04:33N 52°26' E 004°42'5 4.5
2014-Apr-19 03:34N 52°28' E 004°35'9 9.4
2014-Apr-19 02:33N 52°28' E 004°20'1111.4
2014-Apr-19 01:33N 52°28' E 004°01'10 9.6
2014-Apr-19 00:33N 52°20' E 003°52'1110.9
2014-Apr-18 23:33N 52°09' E 003°54'8 7.6
2014-Apr-18 22:33N 52°02' E 003°57'10 0.3
2014-Apr-17 10:33N 51°56' E 004°11'9 9.1
2014-Apr-17 09:33N 51°60' E 003°57'1312.7
2014-Apr-17 08:33N 51°57' E 003°37'7 5.1
2014-Apr-17 07:09N 51°53' E 003°27'0 0.0
2014-Apr-17 06:21N 51°53' E 003°27'0 0.1
2014-Apr-17 05:32N 51°53' E 003°27'1010.3
2014-Apr-17 04:32N 51°52' E 003°11'1615.9
2014-Apr-17 03:30N 51°48' E 002°45'1616.8
2014-Apr-17 02:33N 51°37' E 002°26'1817.5
2014-Apr-17 01:31N 51°22' E 002°11'1717.1
2014-Apr-17 00:33N 51°10' E 001°53'1818.3
2014-Apr-16 23:33N 50°56' E 001°33'1716.8
2014-Apr-16 22:33N 50°41' E 001°21'1616.4
2014-Apr-16 21:34N 50°30' E 001°02'1616.4
2014-Apr-16 20:33N 50°24' E 000°38'1615.7
2014-Apr-16 19:32N 50°19' E 000°14'1515.1
2014-Apr-16 18:33N 50°17' W 000°09'1514.4
2014-Apr-16 17:28N 50°13' W 000°32'1413.2
2014-Apr-16 16:26N 50°10' W 000°53'1112.1
2014-Apr-16 15:33N 50°07' W 001°09'1111.4
2014-Apr-16 14:33N 50°04' W 001°26'1211.3
2014-Apr-16 13:29N 50°00' W 001°44'2913.3
2014-Apr-16 11:19N 49°52' W 002°27'1215.3
2014-Apr-16 10:30N 49°49' W 002°46'  
2014-Apr-10 23:33N 52°24' W 005°44'5513.9
2014-Apr-10 19:33N 53°19' W 005°56'10 1.2
2014-Apr-10 11:31N 53°21' W 006°12'0 0.0
2014-Apr-10 09:31N 53°21' W 006°12'0 0.0
2014-Apr-09 23:31N 53°21' W 006°12'0 0.0
2014-Apr-09 12:07N 53°21' W 006°12'0 0.0
2014-Apr-09 11:31N 53°21' W 006°12'0 0.0
2014-Apr-09 10:31N 53°21' W 006°12'0 0.0
2014-Apr-09 08:25N 53°21' W 006°12'0 0.0
2014-Apr-09 07:25N 53°21' W 006°12'0 0.0
2014-Apr-09 06:19N 53°21' W 006°12'0 0.0
2014-Apr-09 05:31N 53°21' W 006°12'  

Dump ship's entire track history

sailing weather and tide predictions

Mct Breithorn — HBHC — position and weather